Regional Weather Roundup
Issued by NWS

Home | Current Version | Previous Version | Graphics & Text | Print | Product List | Glossary On
Versions: 1 2 3 4 5 6 7 8 9 10 11 12 13 14 15 16 17 18 19 20 21 22 23 24 25 26 27 28 29 30 31 32 33 34 35 36 37 38 39 40 41 42 43 44 45 46 47 48 49 50
000
ASUS43 KBIS 170010
RWRND

NORTH DAKOTA REGIONAL WEATHER ROUNDUP
NATIONAL WEATHER SERVICE BISMARCK ND
700 PM CDT MON OCT 16 2017

NOTE: "FAIR" INDICATES FEW OR NO CLOUDS BELOW 12,000 FEET WITH NO
SIGNIFICANT WEATHER AND/OR OBSTRUCTIONS TO VISIBILITY.


NDZ001>003-009>011-017-170100-
NORTHWEST NORTH DAKOTA

CITY           SKY/WX    TMP DP  RH WIND       PRES   REMARKS
WILLISTON      CLEAR     61  32  33 W6        29.94S
6HR MIN TEMP:  60; 6HR MAX TEMP:  69;

MINOT          CLOUDY    59  35  40 W8        29.91R
MINOT AFB      CLOUDY    56  34  43 W8        29.89R
$$

NDZ018>021-031>035-040>046-170100-
SOUTHWEST NORTH DAKOTA

CITY           SKY/WX    TMP DP  RH WIND       PRES   REMARKS
BISMARCK       CLEAR     63  32  31 NW3       29.95R
6HR MIN TEMP:  63; 6HR MAX TEMP:  74;

DICKINSON      CLEAR     57  31  37 W9        29.98R
GARRISON         N/A     54  33  45 W7        29.94R
6HR MIN TEMP:  54; 6HR MAX TEMP:  69;

HETTINGER ARPT CLEAR     57  29  34 W9        30.02R
$$

NDZ004>008-012>016-024-026-027-054-170100-
NORTHEAST NORTH DAKOTA

CITY           SKY/WX    TMP DP  RH WIND       PRES   REMARKS
GRAND FORKS    PTCLDY    59  37  44 W6        29.85R
GRND FRKS AFB  CLEAR     58  36  43 W8        29.85R
DEVILS LAKE    CLOUDY    57  36  45 W8        29.89R
$$

NDZ022-023-025-028>030-036>039-047>053-170100-
SOUTHEAST NORTH DAKOTA

CITY           SKY/WX    TMP DP  RH WIND       PRES   REMARKS
FARGO          CLEAR     59  39  47 SW3       29.87R
6HR MIN TEMP:  59; 6HR MAX TEMP:  71;

JAMESTOWN      CLEAR     56  34  43 NW9       29.90R
$$





USA.gov is the U.S. government's official web portal to all federal, state and local government web resources and services.